Regional Weather Roundup
Issued by NWS

Home | Current Version | Previous Version | Text Only | Print | Product List | Glossary On
Versions: 1 2 3 4 5 6 7 8 9 10 11 12 13 14 15 16 17 18 19 20 21 22 23 24 25 26 27
000
ASUS42 KTBW 292317
RWRFL
FLORIDA REGIONAL WEATHER ROUNDUP
NATIONAL WEATHER SERVICE TAMPA BAY RUSKIN FL
700 PM EDT FRI APR 29 2016

NOTE: "FAIR" INDICATES FEW OR NO CLOUDS BELOW 12,000 FEET WITH NO
SIGNIFICANT WEATHER AND/OR OBSTRUCTIONS TO VISIBILITY.

FLZ001>010-012>015-112-114-115-300000-
PANHANDLE FLORIDA

CITY           SKY/WX    TMP DP  RH WIND       PRES   REMARKS
PENSACOLA      SUNNY     80  72  76 SE10      29.92R
PENSACOLA NAS  PTSUNNY   78  73  84 S7        29.92R
MILTON NAS     PTSUNNY   80  68  66 S13       29.91S
CRESTVIEW      SUNNY     84  62  47 S8        29.92S
DUKE FIELD     PTSUNNY   83  64  52 S9        29.91R
VALPARAISO     MOSUNNY   80  72  77 S10       29.91F
MARY ESTHER    MOSUNNY   78  72  81 S9        29.91S
PANAMA CITY    FAIR      80  71  74 S12       29.91F
TYNDALL AFB    MOSUNNY   79  74  85 S9        29.92F
APALACHICOLA   MOSUNNY   79  74  84 S7        29.93F

STATION/POSITION SKY/WX   TEMP    WIND        PRES    WAVE   SWELL
                          AIR SEA DIR/SP/G            HT/PER HT/PER
                          (F)     (DEG/KT/KT) (MB)    (FT/S) (FT/S)
30.1N   87.6W              76 75  100/  6/  8 1012.1R   2/ 6   2/ 6
29.2N   88.2W              76 75  140/ 10/ 14 1011.5F
28.8N   86.0W              79 79  160/  8/ 10 1013.2F   2/ 7   2/ 7
PANAMA CITY BEAC           77 78              1013.7F
TOWER C                    74     180/  7/  7 1014.0F
28.5N   84.5W              77 77  120/  4/  4 1013.6F   1/ 5   2/ 5

$$
FLZ011-016>038-118-127-128-134-139-239-300000-
NORTH FLORIDA

CITY           SKY/WX    TMP DP  RH WIND       PRES   REMARKS
MARIANNA       MOSUNNY   87  67  51 CALM      29.90S
TALLAHASSEE    MOSUNNY   84  65  52 S7        29.91S
PERRY          SUNNY     82  69  64 SW12      29.94
LIVE OAK       FAIR      90  66  45 CALM      29.93R
CROSS CITY       N/A     83  67  58 W8        29.92S
LAKE CITY      FAIR      86  64  48 CALM      29.91R
GAINESVILLE    SUNNY     84  66  54 SW3       29.91R
PALATKA        FAIR      84  72  65 E13       29.91S
MAYPORT NAS    SUNNY     77  71  82 SE12      29.92S
JACKSONVILLE   MOSUNNY   82  69  64 E8        29.91R
JAX NAS        MOSUNNY   86  68  54 E12       29.91S
JAX CECIL      SUNNY     86  66  51 S7        29.90S
FERNANDINA BEA FAIR      81  72  74 SE8       29.92R
ST AUGUSTINE   SUNNY     79  71  76 SE10      29.93S
PALM COAST     SUNNY     79  70  73 E9        29.92F

STATION/POSITION SKY/WX   TEMP    WIND        PRES    WAVE   SWELL
                          AIR SEA DIR/SP/G            HT/PER HT/PER
                          (F)     (DEG/KT/KT) (MB)    (FT/S) (FT/S)
SHELL POINT                80     210/ 12/ 14 1012.2
KEATON BEACH               78     240/  9/ 10 1013.4R
CEDAR KEY                  79     290/  7/  9 1014.0R
FERNANDINA                 82 76              1013.2S
30.7N   81.3W                 74                N/A     1/11
MAYPORT                    79 72              1013.3F
ST AUGUSTINE               74 74  150/  6/  7 1014.3S

$$
FLZ040-043>046-052-053-057-058-063-144-300000-
INTERIOR CENTRAL FLORIDA

CITY           SKY/WX    TMP DP  RH WIND       PRES   REMARKS
OCALA          SUNNY     88  64  45 W7        29.92R
THE VILLAGES     N/A     90  66  45 VRB5      29.81S
LEESBURG       SUNNY     89  62  40 S3        29.91S
SANFORD        SUNNY     84  69  60 E13       29.92R
ORLANDO EXEC   MOSUNNY   87  71  58 E13       29.91R
ORLANDO INTL   PTSUNNY   86  70  58 SE13      29.91R
KISSIMMEE      SUNNY     88  63  42 CALM      29.92R
WINTER HAVEN   SUNNY     89  62  40 E7        29.91F
LAKELAND       MOSUNNY   90  66  45 E8        29.91S
BARTOW         FAIR      88  59  37 CALM      29.91S
OKEECHOBEE     MOSUNNY   81  68  65 E6        29.94R

$$
FLZ041-047-054-059-064-141-147-300000-
EAST CENTRAL FLORIDA

CITY           SKY/WX    TMP DP  RH WIND       PRES   REMARKS
ORMOND BEACH   SUNNY     77  72  83 E12       29.93S
DAYTONA BEACH  MOSUNNY   79  71  76 E7        29.93S
DELAND           N/A     82  66  57 E12       29.93S
NEW SMYRNA BEA MOSUNNY   81  72  74 SE12      29.94
JFK SPACE CTR  SUNNY     80  69  70 E9        29.92S
TITUSVILLE     MOSUNNY   82  72  69 E12       29.94R
CAPE CANAVERAL SUNNY     80  70  71 SE10      29.92S
PATRICK AFB    SUNNY     80  70  70 SE10      29.93R
MELBOURNE      SUNNY     81  67  62 E9        29.93R
VERO BEACH     SUNNY     81  66  60 SE10      29.95R
FT PIERCE      SUNNY     80  66  62 SE12      29.94R
STUART         MOSUNNY   82  68  61 SE9       29.96R

STATION/POSITION SKY/WX   TEMP    WIND        PRES    WAVE   SWELL
                          AIR SEA DIR/SP/G            HT/PER HT/PER
                          (F)     (DEG/KT/KT) (MB)    (FT/S) (FT/S)
28.5N   80.2W              78 80  110/  6/  6 1014.1S
28.9N   78.5W              78 77  220/  6/  6 1014.6R
TRIDENT PIER               80 80              1013.6F
28.4N   80.5W                 78                N/A     1/11
27.5N   80.2W                 79                N/A     2/12

$$
FLZ050-056-061-142-242-148-248-149-249-151-251-155-255-
160-260-300000-
WEST CENTRAL FLORIDA

CITY           SKY/WX    TMP DP  RH WIND       PRES   REMARKS
CRYSTAL RIVER  FAIR      81  70  69 W7        29.93S
INVERNESS      FAIR      84  68  58 W5        29.92S
BROOKSVILLE    SUNNY     83  62  49 NW10      29.93S
ZEPHYRHILLS    FAIR      86  63  46 NW13      29.91S
CLEARWATER AIR FAIR      79  68  69 NW8       29.93R
ST PETE CLEARW SUNNY     82  66  58 NW13      29.92S
TAMPA INTL     MOSUNNY   84  67  56 W12       29.92S
TAMPA EXEC     SUNNY     88  68  51 NW9       29.91S
PLANT CITY     PTSUNNY   88  70  55 NW13      29.92S
MACDILL AFB    SUNNY     83  68  60 N7        29.92R
PETER O KNIGHT SUNNY     86  70  58 W8        29.91S
ST PETERSBURG  SUNNY     84  62  47 NW10      29.90S
SARASOTA       SUNNY     82  69  64 W12       29.92R
VENICE         NOT AVBL

STATION/POSITION SKY/WX   TEMP    WIND        PRES    WAVE   SWELL
                          AIR SEA DIR/SP/G            HT/PER HT/PER
                          (F)     (DEG/KT/KT) (MB)    (FT/S) (FT/S)
27.3N   84.2W                 80                N/A     1/ 6
CLEARWATER BEACH           78 81              1013.5F
MIDDLE TAMPA BAY NOT AVBL
VENICE                     79 81  280/  8/  9 1013.3R

$$
FLZ066-069-070-075>078-162-262-165-265-300000-
SOUTHWEST FLORIDA AND KEYS

CITY           SKY/WX    TMP DP  RH WIND       PRES   REMARKS
PUNTA GORDA    PTSUNNY   83  70  64 S6        29.95R THUNDER
FT MYERS       SUNNY     81  72  74 W9        29.91F
SOUTHWEST INTL MOSUNNY   82  70  66 W8        29.92R
NAPLES         SUNNY     81  71  71 W6        29.92R
MARCO ISLAND   SUNNY     82  68  61 W6        29.92S
MARATHON       SUNNY     81  70  69 SE8       29.92S
KEY WEST NAS   PTSUNNY   81  69  67 E12       29.93R
KEY WEST INTL  MOSUNNY   80  71  74 E12       29.93R

STATION/POSITION SKY/WX   TEMP    WIND        PRES    WAVE   SWELL
                          AIR SEA DIR/SP/G            HT/PER HT/PER
                          (F)     (DEG/KT/KT) (MB)    (FT/S) (FT/S)
NAPLES                        84              1012.9F
26.0N   85.6W              80 80  120/ 12/ 14 1012.4F   3/ 6
DRY TORTUGAS               79      80/  7/  7 1013.3R
SAND KEY                   79     120/ 11/ 13 1013.6R
LONG KEY                   79 83  110/ 12/ 13 1013.8R
MOLASSES REEF              78 80  100/ 11/ 13 1014.0S

$$
FLZ067-068-071>074-168-172>174-300000-
SOUTHEAST FLORIDA

CITY           SKY/WX    TMP DP  RH WIND       PRES   REMARKS
W PALM BEACH   MOSUNNY   82  65  56 SE12      29.95R
BOCA RATON     SUNNY     79  68  69 SE12      29.94S
FT LAUDER-EXEC MOSUNNY   80  66  62 SE12      29.93S
FT LAUDERDALE  MOSUNNY   81  67  62 SE13      29.93S
POMPANO BEACH  MOSUNNY   77  68  73 SE13      29.94S
PEMBROKE PINES SUNNY     82  67  60 SE13      29.95R
OPA LOCKA      SUNNY     82  67  60 SE10      29.94R
MIAMI          MOSUNNY   81  68  64 E12       29.94R
WEST KENDALL   SUNNY     81  67  62 SE13      29.94R
HOMESTEAD      SUNNY     79  69  70 E7        29.94R

STATION/POSITION SKY/WX   TEMP    WIND        PRES    WAVE   SWELL
                          AIR SEA DIR/SP/G            HT/PER HT/PER
                          (F)     (DEG/KT/KT) (MB)    (FT/S) (FT/S)
PORT EVERGLADES            80     120/  5/  9 1013.8F
VIRGINIA KEY               79 82              1014.1F
LAKE WORTH                 79 80              1013.6R
SETTLEMENT POINT           78      70/  8/  9 1015.3R

$$





USA.gov is the U.S. government's official web portal to all federal, state and local government web resources and services.